Zurück zum Katalog

THOR ABLESTAR DEB

AktivPO
NORAD 38521·DEBRIS·🇺🇸 United States

Gestartet Sep 28, 1963 von Vandenberg Space Force Base

Loading…

Nächste Überflüge (nächste 24 Stunden)

TLE

AktuellSource: Space-Track

Epoche: Sep 13, 2026, 12:56 UTC

1 38521U 63038Q   26256.53943558  .00000079  00000-0  11646-3 0  9999
2 38521  89.9682 332.7780 0042845  92.7579 333.6000 13.45441764647387

Verfolge THOR ABLESTAR DEB in Echtzeit mit AllMySat

Download on the App Store